Regional Weather Roundup
Issued by NWS

Home | Current Version | Previous Version | Graphics & Text | Print | Product List | Glossary On
Versions: 1 2 3 4 5 6 7 8 9 10 11 12 13 14 15 16 17 18 19 20 21 22 23 24 25 26 27 28 29 30 31 32 33 34 35 36 37 38 39 40 41 42 43 44 45 46 47 48 49 50
000
ASUS43 KMKX 260221
RWRWI

WISCONSIN REGIONAL WEATHER ROUNDUP
NATIONAL WEATHER SERVICE MILWAUKEE/SULLIVAN WI
900 PM CDT TUE APR 25 2017

NOTE: "FAIR" INDICATES FEW OR NO CLOUDS BELOW 12,000 FEET WITH NO
SIGNIFICANT WEATHER AND/OR OBSTRUCTIONS TO VISIBILITY.

WIZ001-002-006>008-014>016-023>028-260300-
NORTHWEST WISCONSIN

CITY           SKY/WX    TMP DP  RH WIND       PRES   REMARKS
SUPERIOR ARPT  LGT RAIN  39  39  99 NE10      29.73R WCI  33
ASHLAND        CLOUDY    38  34  85 NE18G25   29.75R WCI  28
HAYWARD        LGT RAIN  41  37  86 NE15G22   29.68R
SIREN          RAIN      43  40  91 NE9G18    29.66R
CUMBERLAND     RAIN      50  46  87 NE10      29.61R
RICE LAKE      LGT RAIN  55  54  95 NE6       29.62S
CHETEK         LGT RAIN  55  55 100 CALM      29.60S
LADYSMITH      LGT RAIN  55  54  94 N5        29.63S
EAU CLAIRE     CLOUDY    55  54  96 NE7       29.55F
MENOMONIE      CLOUDY    55  55 100 N5        29.57F
NEW RICHMOND   RAIN      54  53  98 NE8       29.59S
OSCEOLA        HVY RAIN  52  52 100 NE12      29.62S
$$

WIZ003>005-009-010-017-018-260300-
NORTH CENTRAL WISCONSIN

CITY           SKY/WX    TMP DP  RH WIND       PRES   REMARKS
MANITOWISH WTR LGT RAIN  47  39  73 N9        29.65R
ARBOR VITAE    DRIZZLE   57  48  73 CALM      29.63R
WOODRUFF       DRIZZLE   57  48  73 CALM      29.63R
RHINELANDER    CLOUDY    56  53  90 W5        29.64R
EAGLE RIVER    LGT RAIN  56  49  76 CALM      29.63R
LAND O LAKES   LGT RAIN  56  39  54 NW5       29.66R
PHILLIPS       RAIN      51  49  95 N5        29.64R
TOMAHAWK       DRIZZLE   54  51  91 CALM      29.64R
MEDFORD        CLOUDY    53  52  95 N5        29.61R
MERRILL        LGT RAIN  55  54  94 N3        29.62R
$$

WIZ029-030-035-036-043>047-260300-
CENTRAL WISCONSIN

CITY           SKY/WX    TMP DP  RH WIND       PRES   REMARKS
WAUSAU         CLOUDY    57  53  86 N7        29.58S
MOSINEE        CLOUDY    57  54  88 N8        29.60R
MARSHFIELD     CLOUDY    56  51  84 NE8       29.57R
STEVENS POINT  CLOUDY    59  47  63 NE8       29.59R
WAUPACA        CLOUDY    65  50  57 E9        29.58S
WAUTOMA        CLOUDY    66  51  58 E8        29.56S
WISC RAPIDS    CLOUDY    60  52  74 NE9       29.58R
CAMP DOUGLAS   LGT RAIN  61  50  67 N5        29.54R
$$

WIZ011>013-019>022-031-037>040-048>050-260300-
NORTHEAST WISCONSIN

CITY           SKY/WX    TMP DP  RH WIND       PRES   REMARKS
ANTIGO         CLOUDY    56  53  87 NW7       29.63R
SHAWANO        CLOUDY    63  50  61 SE5       29.61S
OCONTO         CLOUDY    59  51  74 SE3       29.62R
STURGEON BAY   CLOUDY    53  48  83 MISG      29.65R
GREEN BAY      CLOUDY    63  54  72 SE10      29.61R
MANITOWOC      CLOUDY    53  48  83 CALM      29.62F
APPLETON       PTCLDY    61  48  63 SE8       29.59R
CLINTONVILLE   CLOUDY    63  46  55 SE7       29.59S
OSHKOSH        MOCLDY    62  52  69 SE8       29.58S
$$

WIZ032>034-041-042-053>061-260300-
SOUTHWEST WISCONSIN

CITY           SKY/WX    TMP DP  RH WIND       PRES   REMARKS
LA CROSSE      CLOUDY    60  53  77 CALM      29.51S
SPARTA         CLOUDY    57  54  90 NE5       29.54S
VIROQUA        CLOUDY    62  47  57 E8        29.51S
BOSCOBEL       CLOUDY    67  46  47 NE3       29.48S
PRAIRIE DU CHI CLOUDY    68  42  38 CALM      29.46S
PLATTEVILLE    CLOUDY    68  48  48 SE7       29.49F
$$

WIZ056-057-062-063-064-067-068-260300-
SOUTH CENTRAL WISCONSIN

CITY           SKY/WX    TMP DP  RH WIND       PRES   REMARKS
REEDSBURG      CLOUDY    67  50  54 E8        29.51S
BARABOO/DELLS  CLOUDY    66  48  52 E9        29.53R
LONE ROCK      CLOUDY    67  50  54 E8        29.49S
MINERAL POINT  CLOUDY    70  45  40 E5        29.50S
MADISON        CLOUDY    67  49  52 E13       29.52S
MIDDLETON      CLOUDY    69  50  51 E10       29.53R
WATERTOWN      CLOUDY    64  52  65 E10G16    29.55S
MONROE         CLOUDY    70  45  40 SE8       29.51S
JANESVILLE     CLEAR     68  48  49 E6        29.53R
$$

WIZ051-052-058>065-066-070>072-260300-
SOUTHEAST WISCONSIN

CITY           SKY/WX    TMP DP  RH WIND       PRES   REMARKS
MILWAUKEE      CLOUDY    59  50  72 SE10      29.59R
WAUKESHA       CLOUDY    63  52  67 E8        29.59R
MILWAUKEE/TIMM CLOUDY    61  46  59 NE5       29.61R
RACINE         PTCLDY    60  49  66 S12G17    29.60R
KENOSHA        CLOUDY    61  50  67 SE12      29.58R
FOND DU LAC    CLOUDY    64  50  60 SE12      29.58S
SHEBOYGAN      CLOUDY    56  50  80 E3        29.61R
WEST BEND      CLOUDY    59  50  72 SE9       29.60S
JUNEAU         CLOUDY    63  52  67 E10       29.57S
$$

LSZ147-162-260300-
LAKE SUPERIOR

STATION/POSITION TIME  TEMP    WIND        PRES    WAVE
                       AIR SEA DIR/SP/G            HT/PER
                 (UTC) (F)     (DEG/KT/KT) (MB)    (FT/S)
DEVILS ISLAND    0200   38      30/ 14/ 15 1008.6R
SAXON HARBOR     0200   38      40/ 20     1007.5
$$

LMZ867-665-643>646-260300-
LAKE MICHIGAN

STATION/POSITION TIME  TEMP    WIND        PRES    WAVE
                       AIR SEA DIR/SP/G            HT/PER
                 (UTC) (F)     (DEG/KT/KT) (MB)    (FT/S)
CHAMBERS ISLAND  0140   49      80/  7/  9 1003.7R
N MID LAKE BUOY  0150   41 37   70/ 12/ 12 1006.0R   1/ 4
NORTHPORT PIER   0140   43     130/  3/  7 1004.7R
SISTER BAY       2336   59     130/ 12/ 14   N/A
ALGOMA LAKESHORE 0044             CALM       N/A
KEWAUNEE LAKESHO 0154   49     140/  3/  4 1003.0R
SHEBOYGAN LAKESH 0200   49     360/  5/  5 1002.9R
PORT WASHINGTON  0130   56      30/  2/  4 1003.4S
MILWAUKEE LAKESH 0200   53     180/  5/  5   N/A
S MID LAKE BUOY  0150   49 42   80/ 10/ 10 1002.7R   0
KENOSHA   LAKESH 0200   57     160/ 13/ 19 1002.0
$$

TC  - TEMPERATURE IN CELSIUS
VSB - VISIBILITY IN STATUTE MILES
WCI - WIND CHILL INDEX
HX  - HEAT INDEX





USA.gov is the U.S. government's official web portal to all federal, state and local government web resources and services.